Back to catalog

USA 457

AliveMilitaryVLEO
NORAD 62356·PAYLOAD·🇺🇸 United States

Launched Dec 17, 2024 from Vandenberg Space Force Base

Loading…

Next Passes (next 24 hours)

TLE

StaleSource: Mike McCants

Epoch: Aug 23, 2026, 19:57 UTC

1 62356U 24243S   26235.83157991 0.00000000  00000-0  00000-0 0    01
2 62356  70.0230 127.0813 0004000 111.4058 248.5942 14.96713534    09

Track USA 457 in real time with AllMySat

Download on the App Store